Weather in Obergurgl

Austria     46°52′12″N   11°01′38″E
temp.,
°C
wind,
m/s
gust,
m/s
humid.,
%
clouds,
%
prec.,
mm/h
press.,
hPa
HPBL,
m
24 january, sun
sun2401:00−14nw117062 0.0 99821
04:00−13wnw227461 0.0 99921
07:00−13nw437547 0.0 100129
10:00−10nw33621 0.0 100268
13:00−8wnw394517 0.0 10011892
16:00−13nw3355100 0.0 100325
19:00−17nw544950 0.0 100534
22:00−17nw43330 0.0 100626
25 january, mon
mon2501:00−17nw223028 0.0 100420
04:00−15nw113696 0.0 100421
07:00−14wnw225898 0.1 100325
10:00−10nw1183100 0.3 1004236
13:00−10nnw2572100 1.7 1003933
16:00−12nw3372100 0.1 100529
19:00−16nw448085 0.2 100833
22:00−16nw448053 0.1 101135
26 january, tue
tue2601:00−15nw438152 0.3 101437
04:00−15nw438357 0.2 101538
07:00−16nw438258 0.4 101834
10:00−13nw347922 0.1 1019196
13:00−11wnw346119 0.1 10191079
16:00−13wnw337626 0.0 102038
19:00−17nw547413 0.0 102335
22:00−17nw54731 0.0 102441
27 january, wed
wed2701:00−18nw54721 0.0 102535
04:00−17nw54650 0.0 102332
07:00−16nw436324 0.0 102326
10:00−11nw227065 0.0 102289
13:00−8wnw027676 0.0 1019379
16:00−9se0196100 0.9 1019175
19:00−11nw338594 1.6 102026
22:00−11nw3380100 0.1 102027
28 january, thu
thu2801:00−9wnw3390100 0.8 101962
04:00−9wnw3384100 0.5 101732
07:00−9wnw338289 0.6 101634
10:00−5wsw128597 0.1 1013105
13:00−3ssw229697 0.6 1010220
16:00−4sw2297100 2.7 1009161
19:00−7wnw448480 4.2 101032
22:00−7wnw458323 0.2 101093